Location: Unspecified
(0.0000°N, 0.0000°E)
Time: 06:07:09
(UTC+00:00)

Tiros 1 despin weight - Pass Details

Date: 04 October 2020
Orbit: 594 x 641 km, 48.2° (Epoch: 28 October)

Event Time Altitude Azimuth Distance (km) Brightness Sun altitude
Rises 17:22:22 0° 342° (NNW) 2,909 ? 6.5°
Reaches altitude 10° 17:25:00 10° 355° (N) 2,010 ? 5.9°
Maximum altitude 17:28:49 25° 51° (NE) 1,276 ? 4.9°
Drops below altitude 10° 17:32:40 10° 106° (ESE) 2,025 ? 3.9°
Sets 17:35:20 0° 119° (ESE) 2,936 ? 3.3°
